Time,TemperatureF,DewpointF,PressureIn,WindDirection,WindDirectionDegrees,WindSpeedMPH,WindSpeedGustMPH,Humidity,HourlyPrecipIn,Conditions,Clouds,dailyrainin,SoftwareType,DateUTC
2013-10-21 00:00:00,58.1,48.0,29.89,SSE,155,2.0,2.0,69,0.00,,,0.00,Wunderground v.1.15,2013-10-21 05:00:00,
2013-10-21 00:10:00,57.5,47.8,29.89,SSE,160,3.0,3.0,70,0.00,,,0.00,Wunderground v.1.15,2013-10-21 05:10:00,
2013-10-21 00:15:00,57.3,48.0,29.89,SSE,157,3.0,3.0,71,0.00,,,0.00,Wunderground v.1.15,2013-10-21 05:15:00,
2013-10-21 00:20:00,57.1,47.8,29.89,SSE,161,1.0,9.0,71,0.00,,,0.00,Wunderground v.1.15,2013-10-21 05:20:00,
2013-10-21 00:25:00,56.9,48.0,29.89,South,175,2.0,9.0,72,0.00,,,0.00,Wunderground v.1.15,2013-10-21 05:25:00,
2013-10-21 00:35:00,56.7,48.1,29.90,South,174,2.0,6.0,73,0.00,,,0.00,Wunderground v.1.15,2013-10-21 05:35:00,
2013-10-21 00:40:00,56.7,48.5,29.90,South,186,3.0,3.0,74,0.00,,,0.00,Wunderground v.1.15,2013-10-21 05:40:00,
2013-10-21 00:45:00,56.9,48.7,29.90,South,181,4.0,5.0,74,0.00,,,0.00,Wunderground v.1.15,2013-10-21 05:45:00,
2013-10-21 00:50:00,57.1,48.9,29.90,South,188,3.0,3.0,74,0.00,,,0.00,Wunderground v.1.15,2013-10-21 05:50:00,
2013-10-21 01:00:00,57.6,49.4,29.90,South,189,5.0,5.0,74,0.00,,,0.00,Wunderground v.1.15,2013-10-21 06:00:00,
2013-10-21 01:05:00,57.7,49.1,29.90,South,190,5.0,5.0,73,0.00,,,0.00,Wunderground v.1.15,2013-10-21 06:05:00,
2013-10-21 01:10:00,57.7,49.1,29.90,South,183,4.0,4.0,73,0.00,,,0.00,Wunderground v.1.15,2013-10-21 06:10:00,
2013-10-21 01:15:00,57.7,49.1,29.90,SSW,192,3.0,4.0,73,0.00,,,0.00,Wunderground v.1.15,2013-10-21 06:15:00,
2013-10-21 01:20:00,57.7,49.5,29.90,South,191,3.0,3.0,74,0.00,,,0.00,Wunderground v.1.15,2013-10-21 06:20:00,
2013-10-21 01:25:00,57.6,49.4,29.90,South,180,2.0,3.0,74,0.00,,,0.00,Wunderground v.1.15,2013-10-21 06:25:00,
2013-10-21 01:30:00,57.4,49.2,29.90,South,184,1.0,1.0,74,0.00,,,0.00,Wunderground v.1.15,2013-10-21 06:30:00,
2013-10-21 01:40:00,57.1,49.2,29.90,South,172,2.0,2.0,75,0.00,,,0.00,Wunderground v.1.15,2013-10-21 06:40:00,
2013-10-21 01:45:00,57.0,49.2,29.90,South,175,2.0,4.0,75,0.00,,,0.00,Wunderground v.1.15,2013-10-21 06:45:00,
2013-10-21 01:50:00,56.8,49.3,29.90,South,175,2.0,2.0,76,0.00,,,0.00,Wunderground v.1.15,2013-10-21 06:50:00,
2013-10-21 01:55:00,56.6,49.1,29.90,South,169,2.0,2.0,76,0.00,,,0.00,Wunderground v.1.15,2013-10-21 06:55:00,
2013-10-21 02:00:00,56.4,49.3,29.90,South,169,1.0,1.0,77,0.00,,,0.00,Wunderground v.1.15,2013-10-21 07:00:00,
2013-10-21 02:10:00,56.2,49.4,29.90,SSE,163,1.0,1.0,78,0.00,,,0.00,Wunderground v.1.15,2013-10-21 07:10:00,
2013-10-21 02:20:00,56.0,49.6,29.90,SSE,163,0.0,0.0,79,0.00,,,0.00,Wunderground v.1.15,2013-10-21 07:20:00,
2013-10-21 02:25:00,55.9,49.5,29.90,SSE,163,1.0,1.0,79,0.00,,,0.00,Wunderground v.1.15,2013-10-21 07:25:00,
2013-10-21 02:30:00,55.8,49.4,29.90,SSE,162,1.0,1.0,79,0.00,,,0.00,Wunderground v.1.15,2013-10-21 07:30:00,
2013-10-21 02:40:00,55.5,49.4,29.90,SSE,165,2.0,2.0,80,0.00,,,0.00,Wunderground v.1.15,2013-10-21 07:40:00,
2013-10-21 02:45:00,55.5,49.4,29.90,SSE,161,2.0,2.0,80,0.00,,,0.00,Wunderground v.1.15,2013-10-21 07:45:00,
2013-10-21 02:50:00,55.5,49.4,29.90,SSE,164,3.0,3.0,80,0.00,,,0.00,Wunderground v.1.15,2013-10-21 07:50:00,
2013-10-21 02:55:00,55.5,49.4,29.90,SSE,161,4.0,4.0,80,0.00,,,0.00,Wunderground v.1.15,2013-10-21 07:55:00,
2013-10-21 03:00:00,55.5,49.4,29.90,SSE,163,2.0,2.0,80,0.00,,,0.00,Wunderground v.1.15,2013-10-21 08:00:00,
2013-10-21 03:10:00,55.5,49.4,29.90,SSE,164,1.0,1.0,80,0.00,,,0.00,Wunderground v.1.15,2013-10-21 08:10:00,
2013-10-21 03:15:00,55.5,49.4,29.90,SSE,165,1.0,4.0,80,0.00,,,0.00,Wunderground v.1.15,2013-10-21 08:15:00,
2013-10-21 03:20:00,55.4,49.7,29.90,SSE,164,2.0,10.0,81,0.00,,,0.00,Wunderground v.1.15,2013-10-21 08:20:00,
2013-10-21 03:30:00,55.6,49.5,29.90,SSE,168,3.0,3.0,80,0.00,,,0.00,Wunderground v.1.15,2013-10-21 08:30:00,
2013-10-21 03:35:00,55.7,49.6,29.90,South,169,3.0,3.0,80,0.00,,,0.00,Wunderground v.1.15,2013-10-21 08:35:00,
2013-10-21 03:40:00,55.7,49.6,29.90,SSE,168,2.0,2.0,80,0.00,,,0.00,Wunderground v.1.15,2013-10-21 08:40:00,
2013-10-21 03:45:00,55.8,49.7,29.90,South,169,1.0,2.0,80,0.00,,,0.00,Wunderground v.1.15,2013-10-21 08:45:00,
2013-10-21 03:50:00,55.8,49.7,29.90,South,170,2.0,2.0,80,0.00,,,0.00,Wunderground v.1.15,2013-10-21 08:50:00,
2013-10-21 04:00:00,55.9,49.8,29.90,SSE,164,1.0,1.0,80,0.00,,,0.00,Wunderground v.1.15,2013-10-21 09:00:00,
2013-10-21 04:10:00,55.8,49.7,29.90,SSE,164,1.0,1.0,80,0.00,,,0.00,Wunderground v.1.15,2013-10-21 09:10:00,
2013-10-21 04:15:00,55.8,49.7,29.90,SSE,163,1.0,1.0,80,0.00,,,0.00,Wunderground v.1.15,2013-10-21 09:15:00,
2013-10-21 04:20:00,55.7,49.6,29.90,SSE,163,0.0,0.0,80,0.00,,,0.00,Wunderground v.1.15,2013-10-21 09:20:00,
2013-10-21 04:25:00,55.6,49.5,29.89,SSE,162,0.0,0.0,80,0.00,,,0.00,Wunderground v.1.15,2013-10-21 09:25:00,
2013-10-21 04:30:00,55.5,49.4,29.90,SSE,160,0.0,0.0,80,0.00,,,0.00,Wunderground v.1.15,2013-10-21 09:30:00,
2013-10-21 04:40:00,55.2,49.5,29.90,SSE,160,0.0,0.0,81,0.00,,,0.00,Wunderground v.1.15,2013-10-21 09:40:00,
2013-10-21 04:45:00,55.0,49.3,29.90,SSE,160,0.0,0.0,81,0.00,,,0.00,Wunderground v.1.15,2013-10-21 09:45:00,
2013-10-21 04:50:00,54.8,49.4,29.90,SSE,160,0.0,0.0,82,0.00,,,0.00,Wunderground v.1.15,2013-10-21 09:50:00,
2013-10-21 04:55:00,54.6,49.2,29.90,SSE,160,0.0,0.0,82,0.00,,,0.00,Wunderground v.1.15,2013-10-21 09:55:00,
2013-10-21 05:00:00,54.5,49.4,29.90,SSE,160,0.0,0.0,83,0.00,,,0.00,Wunderground v.1.15,2013-10-21 10:00:00,
2013-10-21 05:10:00,54.2,49.5,29.90,SSE,160,0.0,0.0,84,0.00,,,0.00,Wunderground v.1.15,2013-10-21 10:10:00,
2013-10-21 05:15:00,54.1,49.4,29.91,SSE,160,0.0,0.0,84,0.00,,,0.00,Wunderground v.1.15,2013-10-21 10:15:00,
2013-10-21 05:25:00,53.9,49.5,29.91,SSE,160,0.0,0.0,85,0.00,,,0.00,Wunderground v.1.15,2013-10-21 10:25:00,
2013-10-21 05:30:00,53.8,49.4,29.91,SSE,160,0.0,0.0,85,0.00,,,0.00,Wunderground v.1.15,2013-10-21 10:30:00,
2013-10-21 05:35:00,53.6,49.2,29.91,SSE,160,0.0,0.0,85,0.00,,,0.00,Wunderground v.1.15,2013-10-21 10:35:00,
2013-10-21 05:40:00,53.5,49.4,29.91,SSE,160,0.0,0.0,86,0.00,,,0.00,Wunderground v.1.15,2013-10-21 10:40:00,
2013-10-21 05:45:00,53.5,49.7,29.91,SSE,160,0.0,0.0,87,0.00,,,0.00,Wunderground v.1.15,2013-10-21 10:45:00,
2013-10-21 05:55:00,53.5,50.0,29.91,SSE,160,1.0,5.0,88,0.00,,,0.00,Wunderground v.1.15,2013-10-21 10:55:00,
2013-10-21 06:00:00,53.7,50.2,29.91,SSE,160,1.0,1.0,88,0.00,,,0.00,Wunderground v.1.15,2013-10-21 11:00:00,
2013-10-21 06:10:00,53.8,50.3,29.92,SSE,160,0.0,0.0,88,0.00,,,0.00,Wunderground v.1.15,2013-10-21 11:10:00,
2013-10-21 06:15:00,53.8,50.3,29.92,SSE,160,0.0,0.0,88,0.00,,,0.00,Wunderground v.1.15,2013-10-21 11:15:00,
2013-10-21 06:20:00,53.8,50.3,29.92,SSE,160,0.0,0.0,88,0.00,,,0.00,Wunderground v.1.15,2013-10-21 11:20:00,
2013-10-21 06:25:00,53.8,50.6,29.92,SSE,160,0.0,0.0,89,0.00,,,0.00,Wunderground v.1.15,2013-10-21 11:25:00,
2013-10-21 06:35:00,53.6,50.1,29.93,SSE,160,0.0,0.0,88,0.00,,,0.00,Wunderground v.1.15,2013-10-21 11:35:00,
2013-10-21 06:40:00,53.5,50.0,29.92,SSE,160,0.0,0.0,88,0.00,,,0.00,Wunderground v.1.15,2013-10-21 11:40:00,
2013-10-21 06:45:00,53.4,50.2,29.93,SSE,160,0.0,0.0,89,0.00,,,0.00,Wunderground v.1.15,2013-10-21 11:45:00,
2013-10-21 06:50:00,53.3,50.1,29.93,SSE,160,0.0,0.0,89,0.00,,,0.00,Wunderground v.1.15,2013-10-21 11:50:00,
2013-10-21 06:55:00,53.2,50.0,29.92,SSE,160,0.0,0.0,89,0.00,,,0.00,Wunderground v.1.15,2013-10-21 11:55:00,
2013-10-21 07:00:00,53.1,49.9,29.92,SSE,160,0.0,0.0,89,0.00,,,0.00,Wunderground v.1.15,2013-10-21 12:00:00,
2013-10-21 07:10:00,53.1,50.2,29.93,SSE,160,0.0,0.0,90,0.00,,,0.00,Wunderground v.1.15,2013-10-21 12:10:00,
2013-10-21 07:20:00,53.2,50.6,29.94,SSE,160,0.0,0.0,91,0.00,,,0.00,Wunderground v.1.15,2013-10-21 12:20:00,
2013-10-21 07:25:00,53.3,50.7,29.94,SSE,160,0.0,0.0,91,0.00,,,0.00,Wunderground v.1.15,2013-10-21 12:25:00,
2013-10-21 07:30:00,53.6,51.0,29.94,SSE,160,0.0,0.0,91,0.00,,,0.00,Wunderground v.1.15,2013-10-21 12:30:00,
2013-10-21 07:40:00,53.9,51.3,29.95,SSE,160,0.0,0.0,91,0.00,,,0.00,Wunderground v.1.15,2013-10-21 12:40:00,
2013-10-21 07:45:00,54.2,51.9,29.95,SSE,160,0.0,0.0,92,0.00,,,0.00,Wunderground v.1.15,2013-10-21 12:45:00,
2013-10-21 07:50:00,54.5,52.2,29.95,SSE,160,0.0,0.0,92,0.00,,,0.00,Wunderground v.1.15,2013-10-21 12:50:00,
2013-10-21 08:00:00,55.1,52.8,29.96,SSE,160,0.0,0.0,92,0.00,,,0.00,Wunderground v.1.15,2013-10-21 13:00:00,
2013-10-21 08:10:00,55.5,53.2,29.96,SSE,160,0.0,0.0,92,0.00,,,0.00,Wunderground v.1.15,2013-10-21 13:10:00,
2013-10-21 08:20:00,55.7,53.4,29.96,SSE,160,0.0,0.0,92,0.00,,,0.00,Wunderground v.1.15,2013-10-21 13:20:00,
2013-10-21 08:25:00,55.9,53.6,29.96,SSE,160,0.0,0.0,92,0.00,,,0.00,Wunderground v.1.15,2013-10-21 13:25:00,
2013-10-21 08:30:00,56.1,53.8,29.96,SSE,160,0.0,0.0,92,0.00,,,0.00,Wunderground v.1.15,2013-10-21 13:30:00,
2013-10-21 08:35:00,56.2,53.9,29.96,SSE,160,0.0,0.0,92,0.00,,,0.00,Wunderground v.1.15,2013-10-21 13:35:00,
2013-10-21 08:45:00,56.6,54.3,29.96,SSE,160,0.0,0.0,92,0.00,,,0.00,Wunderground v.1.15,2013-10-21 13:45:00,
2013-10-21 08:50:00,56.7,54.1,29.96,SSE,160,0.0,0.0,91,0.00,,,0.00,Wunderground v.1.15,2013-10-21 13:50:00,
2013-10-21 08:55:00,57.0,54.7,29.96,SSE,160,1.0,1.0,92,0.00,,,0.00,Wunderground v.1.15,2013-10-21 13:55:00,
2013-10-21 09:05:00,57.5,54.9,29.96,SSE,159,1.0,1.0,91,0.00,,,0.00,Wunderground v.1.15,2013-10-21 14:05:00,
2013-10-21 09:15:00,58.0,55.1,29.96,SSE,150,2.0,7.0,90,0.00,,,0.00,Wunderground v.1.15,2013-10-21 14:15:00,
2013-10-21 09:20:00,58.3,55.4,29.96,SE,146,2.0,2.0,90,0.00,,,0.00,Wunderground v.1.15,2013-10-21 14:20:00,
2013-10-21 09:25:00,58.6,55.4,29.96,SE,145,2.0,2.0,89,0.00,,,0.00,Wunderground v.1.15,2013-10-21 14:25:00,
2013-10-21 09:30:00,58.8,55.3,29.96,SSE,149,2.0,8.0,88,0.00,,,0.00,Wunderground v.1.15,2013-10-21 14:30:00,
2013-10-21 09:35:00,59.0,55.4,29.96,SSE,147,2.0,8.0,88,0.00,,,0.00,Wunderground v.1.15,2013-10-21 14:35:00,
2013-10-21 09:45:00,59.9,56.0,29.96,SSE,157,2.0,6.0,87,0.00,,,0.00,Wunderground v.1.15,2013-10-21 14:45:00,
2013-10-21 09:50:00,60.8,56.3,29.96,South,173,2.0,6.0,85,0.00,,,0.00,Wunderground v.1.15,2013-10-21 14:50:00,
2013-10-21 09:55:00,61.3,56.4,29.96,SSE,157,4.0,6.0,84,0.00,,,0.00,Wunderground v.1.15,2013-10-21 14:55:00,
2013-10-21 10:00:00,61.4,56.5,29.97,SSE,157,3.0,3.0,84,0.00,,,0.00,Wunderground v.1.15,2013-10-21 15:00:00,
2013-10-21 10:10:00,62.8,57.6,29.96,SSE,167,1.0,1.0,83,0.00,,,0.00,Wunderground v.1.15,2013-10-21 15:10:00,
2013-10-21 10:15:00,63.4,57.5,29.96,South,181,1.0,4.0,81,0.00,,,0.00,Wunderground v.1.15,2013-10-21 15:15:00,
2013-10-21 10:25:00,64.5,58.5,29.96,South,182,0.0,1.0,81,0.00,,,0.00,Wunderground v.1.15,2013-10-21 15:25:00,
2013-10-21 10:30:00,66.7,59.3,29.96,SSW,197,1.0,2.0,77,0.00,,,0.00,Wunderground v.1.15,2013-10-21 15:30:00,
2013-10-21 10:35:00,67.5,60.0,29.95,SSW,192,3.0,3.0,77,0.00,,,0.00,Wunderground v.1.15,2013-10-21 15:35:00,
2013-10-21 10:40:00,68.1,59.9,29.96,SSW,207,3.0,4.0,75,0.00,,,0.00,Wunderground v.1.15,2013-10-21 15:40:00,
2013-10-21 10:45:00,68.2,60.0,29.95,South,191,2.0,4.0,75,0.00,,,0.00,Wunderground v.1.15,2013-10-21 15:45:00,
2013-10-21 10:55:00,68.7,60.1,29.95,SSW,207,1.0,1.0,74,0.00,,,0.00,Wunderground v.1.15,2013-10-21 15:55:00,
2013-10-21 11:00:00,69.6,60.6,29.95,South,175,2.0,11.0,73,0.00,,,0.00,Wunderground v.1.15,2013-10-21 16:00:00,
2013-10-21 11:10:00,70.2,61.1,29.95,SSW,192,3.0,5.0,73,0.00,,,0.00,Wunderground v.1.15,2013-10-21 16:10:00,
2013-10-21 11:15:00,70.3,60.8,29.95,SSE,159,3.0,5.0,72,0.00,,,0.00,Wunderground v.1.15,2013-10-21 16:15:00,
2013-10-21 11:20:00,71.1,61.6,29.95,South,186,4.0,11.0,72,0.00,,,0.00,Wunderground v.1.15,2013-10-21 16:20:00,
2013-10-21 11:25:00,71.5,62.0,29.95,South,180,3.0,11.0,72,0.00,,,0.00,Wunderground v.1.15,2013-10-21 16:25:00,
2013-10-21 11:35:00,72.4,61.2,29.95,South,174,4.0,6.0,68,0.00,,,0.00,Wunderground v.1.15,2013-10-21 16:35:00,
2013-10-21 11:40:00,71.5,60.8,29.95,South,189,3.0,7.0,69,0.00,,,0.00,Wunderground v.1.15,2013-10-21 16:40:00,
2013-10-21 11:45:00,70.7,61.2,29.95,SSW,213,4.0,7.0,72,0.00,,,0.00,Wunderground v.1.15,2013-10-21 16:45:00,
2013-10-21 11:50:00,70.7,61.2,29.95,SSW,198,4.0,4.0,72,0.00,,,0.00,Wunderground v.1.15,2013-10-21 16:50:00,
2013-10-21 11:55:00,70.8,61.3,29.96,SSW,205,3.0,4.0,72,0.00,,,0.00,Wunderground v.1.15,2013-10-21 16:55:00,
2013-10-21 12:00:00,71.0,61.5,29.95,SSW,200,4.0,4.0,72,0.00,,,0.00,Wunderground v.1.15,2013-10-21 17:00:00,
2013-10-21 12:10:00,70.8,61.3,29.96,SSW,203,2.0,2.0,72,0.00,,,0.00,Wunderground v.1.15,2013-10-21 17:10:00,
2013-10-21 12:20:00,70.3,60.8,29.96,SW,217,3.0,3.0,72,0.00,,,0.00,Wunderground v.1.15,2013-10-21 17:20:00,
2013-10-21 12:25:00,70.1,61.0,29.96,SSW,207,3.0,6.0,73,0.00,,,0.00,Wunderground v.1.15,2013-10-21 17:25:00,
2013-10-21 12:30:00,69.8,61.1,29.96,SSW,207,1.0,3.0,74,0.00,,,0.00,Wunderground v.1.15,2013-10-21 17:30:00,
2013-10-21 12:35:00,69.7,61.0,29.96,SSW,205,1.0,3.0,74,0.00,,,0.00,Wunderground v.1.15,2013-10-21 17:35:00,
2013-10-21 12:40:00,69.6,60.9,29.96,SSW,192,1.0,3.0,74,0.00,,,0.00,Wunderground v.1.15,2013-10-21 17:40:00,
2013-10-21 12:50:00,69.7,61.4,29.96,SW,215,1.0,1.0,75,0.00,,,0.00,Wunderground v.1.15,2013-10-21 17:50:00,
2013-10-21 12:55:00,69.8,61.5,29.96,SSW,212,1.0,1.0,75,0.00,,,0.00,Wunderground v.1.15,2013-10-21 17:55:00,
2013-10-21 13:00:00,69.8,61.5,29.97,South,190,2.0,2.0,75,0.00,,,0.00,Wunderground v.1.15,2013-10-21 18:00:00,
2013-10-21 13:10:00,69.8,61.5,29.96,SSW,198,0.0,0.0,75,0.00,,,0.00,Wunderground v.1.15,2013-10-21 18:10:00,
2013-10-21 13:15:00,69.8,61.5,29.96,SSW,207,1.0,1.0,75,0.00,,,0.00,Wunderground v.1.15,2013-10-21 18:15:00,
2013-10-21 13:20:00,69.9,61.6,29.95,SSW,204,1.0,1.0,75,0.00,,,0.00,Wunderground v.1.15,2013-10-21 18:20:00,
2013-10-21 13:25:00,70.0,61.7,29.95,SSW,202,1.0,4.0,75,0.00,,,0.00,Wunderground v.1.15,2013-10-21 18:25:00,
2013-10-21 13:35:00,70.3,62.0,29.95,SSW,204,1.0,1.0,75,0.00,,,0.00,Wunderground v.1.15,2013-10-21 18:35:00,
2013-10-21 13:40:00,70.5,62.2,29.95,SSW,204,0.0,0.0,75,0.00,,,0.00,Wunderground v.1.15,2013-10-21 18:40:00,
2013-10-21 13:45:00,70.8,62.5,29.94,SSW,203,0.0,0.0,75,0.00,,,0.00,Wunderground v.1.15,2013-10-21 18:45:00,
2013-10-21 13:50:00,71.4,62.7,29.94,SSW,193,0.0,0.0,74,0.00,,,0.00,Wunderground v.1.15,2013-10-21 18:50:00,
2013-10-21 14:00:00,71.7,62.2,29.94,SSW,200,1.0,1.0,72,0.00,,,0.00,Wunderground v.1.15,2013-10-21 19:00:00,
2013-10-21 14:10:00,72.3,62.8,29.94,SSW,213,1.0,1.0,72,0.00,,,0.00,Wunderground v.1.15,2013-10-21 19:10:00,
2013-10-21 14:15:00,72.5,62.2,29.94,SW,227,1.0,1.0,70,0.00,,,0.00,Wunderground v.1.15,2013-10-21 19:15:00,
2013-10-21 14:20:00,72.4,62.1,29.93,WNW,292,2.0,2.0,70,0.00,,,0.00,Wunderground v.1.15,2013-10-21 19:20:00,
2013-10-21 14:25:00,72.2,61.5,29.94,West,278,4.0,4.0,69,0.00,,,0.00,Wunderground v.1.15,2013-10-21 19:25:00,
2013-10-21 14:30:00,71.9,61.6,29.93,West,281,4.0,4.0,70,0.00,,,0.00,Wunderground v.1.15,2013-10-21 19:30:00,
2013-10-21 14:35:00,71.7,61.8,29.94,West,279,3.0,4.0,71,0.00,,,0.00,Wunderground v.1.15,2013-10-21 19:35:00,
2013-10-21 14:45:00,71.8,61.5,29.93,WNW,290,2.0,2.0,70,0.00,,,0.00,Wunderground v.1.15,2013-10-21 19:45:00,
2013-10-21 14:50:00,72.0,61.3,29.93,NW,325,4.0,21.0,69,0.00,,,0.00,Wunderground v.1.15,2013-10-21 19:50:00,
2013-10-21 14:55:00,71.1,57.9,29.94,North,355,9.0,21.0,63,0.00,,,0.00,Wunderground v.1.15,2013-10-21 19:55:00,
2013-10-21 15:00:00,69.7,57.4,29.94,North,355,11.0,11.0,65,0.00,,,0.00,Wunderground v.1.15,2013-10-21 20:00:00,
2013-10-21 15:10:00,68.3,56.1,29.94,NNW,340,9.0,14.0,65,0.00,,,0.00,Wunderground v.1.15,2013-10-21 20:10:00,
2013-10-21 15:15:00,68.0,56.2,29.95,NNW,339,11.0,14.0,66,0.00,,,0.00,Wunderground v.1.15,2013-10-21 20:15:00,
2013-10-21 15:20:00,67.7,55.9,29.95,NNW,344,12.0,12.0,66,0.00,,,0.00,Wunderground v.1.15,2013-10-21 20:20:00,
2013-10-21 15:30:00,67.5,56.2,29.95,NNW,339,10.0,10.0,67,0.00,,,0.00,Wunderground v.1.15,2013-10-21 20:30:00,
2013-10-21 15:35:00,67.4,56.1,29.95,North,355,10.0,15.0,67,0.00,,,0.00,Wunderground v.1.15,2013-10-21 20:35:00,
2013-10-21 15:40:00,67.2,55.9,29.95,NNW,340,11.0,11.0,67,0.00,,,0.00,Wunderground v.1.15,2013-10-21 20:40:00,
2013-10-21 15:45:00,67.0,56.1,29.95,NW,320,10.0,15.0,68,0.00,,,0.00,Wunderground v.1.15,2013-10-21 20:45:00,
2013-10-21 15:55:00,66.5,56.0,29.96,NNW,335,10.0,13.0,69,0.00,,,0.00,Wunderground v.1.15,2013-10-21 20:55:00,
2013-10-21 16:00:00,66.1,56.0,29.96,NNW,342,10.0,11.0,70,0.00,,,0.00,Wunderground v.1.15,2013-10-21 21:00:00,
2013-10-21 16:10:00,65.7,55.6,29.96,NNW,346,10.0,10.0,70,0.00,,,0.00,Wunderground v.1.15,2013-10-21 21:10:00,
2013-10-21 16:15:00,65.5,55.8,29.96,NNW,332,10.0,14.0,71,0.00,,,0.00,Wunderground v.1.15,2013-10-21 21:15:00,
2013-10-21 16:20:00,65.3,55.7,29.96,NW,318,10.0,10.0,71,0.00,,,0.00,Wunderground v.1.15,2013-10-21 21:20:00,
2013-10-21 16:25:00,65.0,55.0,29.96,NNW,330,11.0,11.0,70,0.00,,,0.00,Wunderground v.1.15,2013-10-21 21:25:00,
2013-10-21 16:30:00,64.7,54.7,29.97,NNW,333,11.0,13.0,70,0.00,,,0.00,Wunderground v.1.15,2013-10-21 21:30:00,
2013-10-21 16:40:00,64.1,54.1,29.97,North,349,10.0,10.0,70,0.00,,,0.00,Wunderground v.1.15,2013-10-21 21:40:00,
2013-10-21 16:45:00,63.9,54.3,29.97,NNW,343,10.0,11.0,71,0.00,,,0.00,Wunderground v.1.15,2013-10-21 21:45:00,
2013-10-21 16:50:00,63.9,54.3,29.97,North,360,9.0,9.0,71,0.00,,,0.00,Wunderground v.1.15,2013-10-21 21:50:00,
2013-10-21 16:55:00,63.8,54.2,29.97,NW,313,9.0,9.0,71,0.00,,,0.00,Wunderground v.1.15,2013-10-21 21:55:00,
2013-10-21 17:00:00,63.8,54.2,29.97,North,360,8.0,8.0,71,0.00,,,0.00,Wunderground v.1.15,2013-10-21 22:00:00,
2013-10-21 17:10:00,63.8,54.2,29.97,North,350,8.0,8.0,71,0.00,,,0.00,Wunderground v.1.15,2013-10-21 22:10:00,
2013-10-21 17:15:00,63.7,54.1,29.97,NNW,336,8.0,8.0,71,0.00,,,0.00,Wunderground v.1.15,2013-10-21 22:15:00,
2013-10-21 17:25:00,63.4,54.2,29.98,NNE,15,7.0,9.0,72,0.00,,,0.00,Wunderground v.1.15,2013-10-21 22:25:00,
2013-10-21 17:30:00,63.2,54.0,29.98,NNW,329,9.0,10.0,72,0.00,,,0.00,Wunderground v.1.15,2013-10-21 22:30:00,
2013-10-21 17:35:00,63.1,54.3,29.98,NNW,338,9.0,10.0,73,0.00,,,0.00,Wunderground v.1.15,2013-10-21 22:35:00,
2013-10-21 17:40:00,63.1,54.3,29.98,NNW,332,7.0,12.0,73,0.00,,,0.00,Wunderground v.1.15,2013-10-21 22:40:00,
2013-10-21 17:50:00,62.8,54.4,29.99,North,355,8.0,8.0,74,0.00,,,0.00,Wunderground v.1.15,2013-10-21 22:50:00,
2013-10-21 17:55:00,62.6,53.8,29.98,North,360,8.0,8.0,73,0.00,,,0.00,Wunderground v.1.15,2013-10-21 22:55:00,
2013-10-21 18:00:00,62.5,54.1,29.99,North,355,9.0,9.0,74,0.00,,,0.00,Wunderground v.1.15,2013-10-21 23:00:00,
2013-10-21 18:10:00,62.3,53.9,29.99,North,355,10.0,10.0,74,0.00,,,0.00,Wunderground v.1.15,2013-10-21 23:10:00,
2013-10-21 18:15:00,62.1,53.7,29.99,NNW,344,10.0,11.0,74,0.00,,,0.00,Wunderground v.1.15,2013-10-21 23:15:00,
2013-10-21 18:20:00,62.0,54.0,29.99,North,355,10.0,12.0,75,0.00,,,0.00,Wunderground v.1.15,2013-10-21 23:20:00,
2013-10-21 18:25:00,61.8,53.8,30.00,NNW,336,9.0,12.0,75,0.00,,,0.00,Wunderground v.1.15,2013-10-21 23:25:00,
2013-10-21 18:30:00,61.6,53.6,30.00,NNW,344,9.0,15.0,75,0.00,,,0.00,Wunderground v.1.15,2013-10-21 23:30:00,
2013-10-21 18:40:00,61.3,53.7,30.00,North,360,10.0,10.0,76,0.00,,,0.00,Wunderground v.1.15,2013-10-21 23:40:00,
2013-10-21 18:45:00,61.1,53.5,30.00,North,360,9.0,10.0,76,0.00,,,0.00,Wunderground v.1.15,2013-10-21 23:45:00,
2013-10-21 18:50:00,60.9,53.6,30.01,NNW,346,9.0,11.0,77,0.00,,,0.00,Wunderground v.1.15,2013-10-21 23:50:00,
2013-10-21 19:00:00,60.6,53.3,30.01,NNE,15,8.0,9.0,77,0.00,,,0.00,Wunderground v.1.15,2013-10-22 00:00:00,
2013-10-21 19:10:00,60.4,53.5,30.01,NNE,15,7.0,12.0,78,0.00,,,0.00,Wunderground v.1.15,2013-10-22 00:10:00,
2013-10-21 19:20:00,60.4,53.5,30.01,North,5,7.0,7.0,78,0.00,,,0.00,Wunderground v.1.15,2013-10-22 00:20:00,
2013-10-21 19:25:00,60.4,53.9,30.01,North,355,8.0,9.0,79,0.00,,,0.00,Wunderground v.1.15,2013-10-22 00:25:00,
2013-10-21 19:30:00,60.3,53.8,30.01,North,355,8.0,8.0,79,0.00,,,0.00,Wunderground v.1.15,2013-10-22 00:30:00,
2013-10-21 19:35:00,60.3,53.8,30.02,NNW,338,7.0,8.0,79,0.00,,,0.00,Wunderground v.1.15,2013-10-22 00:35:00,
2013-10-21 19:40:00,60.3,53.8,30.02,NNW,343,6.0,6.0,79,0.00,,,0.00,Wunderground v.1.15,2013-10-22 00:40:00,
2013-10-21 19:50:00,60.2,53.7,30.02,North,351,7.0,7.0,79,0.00,,,0.00,Wunderground v.1.15,2013-10-22 00:50:00,
2013-10-21 19:55:00,60.1,53.6,30.02,North,360,7.0,7.0,79,0.00,,,0.00,Wunderground v.1.15,2013-10-22 00:55:00,
2013-10-21 20:00:00,60.0,53.1,30.03,North,5,5.0,5.0,78,0.00,,,0.00,Wunderground v.1.15,2013-10-22 01:00:00,
2013-10-21 20:10:00,59.9,53.4,30.03,North,5,6.0,7.0,79,0.00,,,0.00,Wunderground v.1.15,2013-10-22 01:10:00,
2013-10-21 20:15:00,60.0,53.5,30.03,North,9,6.0,7.0,79,0.00,,,0.00,Wunderground v.1.15,2013-10-22 01:15:00,
2013-10-21 20:20:00,60.0,53.5,30.04,NNW,345,7.0,7.0,79,0.00,,,0.00,Wunderground v.1.15,2013-10-22 01:20:00,
2013-10-21 20:30:00,60.2,53.7,30.04,North,360,6.0,6.0,79,0.00,,,0.00,Wunderground v.1.15,2013-10-22 01:30:00,
2013-10-21 20:35:00,60.3,53.8,30.04,North,355,6.0,6.0,79,0.00,,,0.00,Wunderground v.1.15,2013-10-22 01:35:00,
2013-10-21 20:40:00,60.2,53.3,30.04,North,360,7.0,10.0,78,0.00,,,0.00,Wunderground v.1.15,2013-10-22 01:40:00,
2013-10-21 20:45:00,60.1,53.2,30.05,North,355,9.0,10.0,78,0.00,,,0.00,Wunderground v.1.15,2013-10-22 01:45:00,
2013-10-21 20:55:00,59.9,53.0,30.05,NNW,345,8.0,13.0,78,0.00,,,0.00,Wunderground v.1.15,2013-10-22 01:55:00,
2013-10-21 21:00:00,59.7,52.8,30.05,North,360,9.0,9.0,78,0.00,,,0.00,Wunderground v.1.15,2013-10-22 02:00:00,
2013-10-21 21:10:00,59.4,52.5,30.05,North,360,10.0,10.0,78,0.00,,,0.00,Wunderground v.1.15,2013-10-22 02:10:00,
2013-10-21 21:15:00,59.0,51.4,30.06,North,5,11.0,13.0,76,0.00,,,0.00,Wunderground v.1.15,2013-10-22 02:15:00,
2013-10-21 21:20:00,58.5,50.6,30.06,NE,34,11.0,13.0,75,0.00,,,0.00,Wunderground v.1.15,2013-10-22 02:20:00,
2013-10-21 21:25:00,58.1,50.2,30.06,NNE,22,11.0,13.0,75,0.00,,,0.00,Wunderground v.1.15,2013-10-22 02:25:00,
2013-10-21 21:30:00,57.7,49.8,30.07,North,9,10.0,10.0,75,0.00,,,0.00,Wunderground v.1.15,2013-10-22 02:30:00,
2013-10-21 21:40:00,57.1,49.6,30.07,North,5,9.0,9.0,76,0.00,,,0.00,Wunderground v.1.15,2013-10-22 02:40:00,
2013-10-21 21:45:00,56.9,49.4,30.07,North,10,8.0,9.0,76,0.00,,,0.00,Wunderground v.1.15,2013-10-22 02:45:00,
2013-10-21 21:55:00,56.5,49.0,30.07,NNE,14,6.0,6.0,76,0.00,,,0.00,Wunderground v.1.15,2013-10-22 02:55:00,
2013-10-21 22:00:00,56.4,49.3,30.07,North,5,5.0,5.0,77,0.00,,,0.00,Wunderground v.1.15,2013-10-22 03:00:00,
2013-10-21 22:10:00,56.1,49.0,30.08,North,10,3.0,5.0,77,0.00,,,0.00,Wunderground v.1.15,2013-10-22 03:10:00,
2013-10-21 22:15:00,55.9,48.8,30.08,North,10,3.0,5.0,77,0.00,,,0.00,Wunderground v.1.15,2013-10-22 03:15:00,
2013-10-21 22:20:00,55.8,48.7,30.08,NNE,17,3.0,6.0,77,0.00,,,0.00,Wunderground v.1.15,2013-10-22 03:20:00,
2013-10-21 22:30:00,55.5,48.4,30.08,North,360,5.0,5.0,77,0.00,,,0.00,Wunderground v.1.15,2013-10-22 03:30:00,
2013-10-21 22:35:00,55.5,48.4,30.09,North,9,5.0,6.0,77,0.00,,,0.00,Wunderground v.1.15,2013-10-22 03:35:00,
2013-10-21 22:40:00,55.4,48.3,30.09,NNE,21,5.0,6.0,77,0.00,,,0.00,Wunderground v.1.15,2013-10-22 03:40:00,
2013-10-21 22:45:00,55.3,48.2,30.09,North,11,5.0,6.0,77,0.00,,,0.00,Wunderground v.1.15,2013-10-22 03:45:00,
2013-10-21 22:55:00,55.2,47.8,30.09,North,11,5.0,5.0,76,0.00,,,0.00,Wunderground v.1.15,2013-10-22 03:55:00,
2013-10-21 23:00:00,55.1,47.7,30.09,North,5,6.0,6.0,76,0.00,,,0.00,Wunderground v.1.15,2013-10-22 04:00:00,
2013-10-21 23:05:00,55.1,47.7,30.10,NNE,28,6.0,6.0,76,0.00,,,0.00,Wunderground v.1.15,2013-10-22 04:05:00,
2013-10-21 23:10:00,55.0,47.6,30.10,North,5,5.0,5.0,76,0.00,,,0.00,Wunderground v.1.15,2013-10-22 04:10:00,
2013-10-21 23:15:00,54.9,47.5,30.09,NNE,14,4.0,8.0,76,0.00,,,0.00,Wunderground v.1.15,2013-10-22 04:15:00,
2013-10-21 23:20:00,54.8,47.4,30.09,NNE,14,5.0,5.0,76,0.00,,,0.00,Wunderground v.1.15,2013-10-22 04:20:00,
2013-10-21 23:25:00,54.7,47.3,30.09,NNE,13,6.0,8.0,76,0.00,,,0.00,Wunderground v.1.15,2013-10-22 04:25:00,
2013-10-21 23:30:00,54.6,46.8,30.09,NNE,22,6.0,6.0,75,0.00,,,0.00,Wunderground v.1.15,2013-10-22 04:30:00,
2013-10-21 23:35:00,54.6,46.8,30.10,NNE,19,6.0,8.0,75,0.00,,,0.00,Wunderground v.1.15,2013-10-22 04:35:00,
2013-10-21 23:40:00,54.5,46.7,30.09,North,9,4.0,4.0,75,0.00,,,0.00,Wunderground v.1.15,2013-10-22 04:40:00,
2013-10-21 23:45:00,54.4,46.6,30.09,NNE,16,4.0,4.0,75,0.00,,,0.00,Wunderground v.1.15,2013-10-22 04:45:00,
2013-10-21 23:50:00,54.4,47.0,30.09,NNE,16,4.0,4.0,76,0.00,,,0.00,Wunderground v.1.15,2013-10-22 04:50:00,
2013-10-21 23:55:00,54.2,46.8,30.10,NNE,16,4.0,5.0,76,0.00,,,0.00,Wunderground v.1.15,2013-10-22 04:55:00,